Location: Newark
(35.6799°N, 139.7636°E)
Time: 01:47:48
(UTC+00:00)

Vanguard 3 - Pass Details

Date: 22 December 2019
Orbit: 508 x 3263 km, 33.3° (Epoch: 18 January)

Event Time Altitude Azimuth Distance (km) Brightness Sun altitude
Exits shadow 19:12:03 36° 122° (ESE) 1,004 8.0 -30.6°
Drops below altitude 10° 19:15:44 10° 90° (E) 2,343 10.4 -29.9°
Sets 19:18:55 0° 85° (E) 3,630 11.6 -29.3°
